This is the latest recevied weather packets stored in our database for station/object F5OZP-13. If no packets are shown the sender has not sent any weather packets the latest 10 day(s).
| Time | Temp. | Humidity | Pressure | Rain* | Wind** | Luminosity | Snow |
|---|---|---|---|---|---|---|---|
| 1777469557 | 22.78° C | 99% | 1010.4 hPa | - | - | 0 W/m² | - |
| 1777469249 | 22.78° C | 99% | 1010.5 hPa | - | - | 4 W/m² | - |
| 1777468941 | 23.89° C | 99% | 1010.5 hPa | - | - | 17 W/m² | - |
| 1777468633 | 23.89° C | 99% | 1010.6 hPa | - | - | 37 W/m² | - |
| 1777468325 | 22.78° C | 99% | 1010.5 hPa | - | - | 31 W/m² | - |
| 1777468029 | 22.22° C | 99% | 1010.4 hPa | - | - | 7 W/m² | - |
| 1777467713 | 21.11° C | 99% | 1010.4 hPa | - | - | 13 W/m² | - |
| 1777467405 | 21.11° C | 99% | 1010.4 hPa | - | - | 1 W/m² | - |
| 1777467097 | 20.56° C | 99% | 1010.4 hPa | - | - | 0 W/m² | - |
| 1777466789 | 20.56° C | 99% | 1010.4 hPa | - | - | 0 W/m² | - |
| 1777466480 | 20.56° C | 99% | 1010.3 hPa | - | - | 0 W/m² | - |
| 1777466180 | 21.11° C | 99% | 1010.4 hPa | - | - | 0 W/m² | - |
| 1777465864 | 21.11° C | 99% | 1010.5 hPa | - | - | 0 W/m² | - |
| 1777465556 | 20.56° C | 99% | 1010.5 hPa | - | - | 0 W/m² | - |
| 1777465248 | 21.11° C | 99% | 1010.5 hPa | - | - | 0 W/m² | - |
| 1777464940 | 20.56° C | 99% | 1010.5 hPa | - | - | 0 W/m² | - |
| 1777464631 | 20.56° C | 99% | 1010.5 hPa | - | - | 0 W/m² | - |
| 1777464336 | 21.11° C | 99% | 1010.5 hPa | - | - | 0 W/m² | - |
| 1777464019 | 20.56° C | 99% | 1010.6 hPa | - | - | 0 W/m² | - |
| 1777463712 | 20.56° C | 99% | 1010.6 hPa | - | - | 0 W/m² | - |
| 1777463403 | 20.56° C | 99% | 1010.7 hPa | - | - | 0 W/m² | - |
| 1777463095 | 20° C | 99% | 1010.7 hPa | - | - | 0 W/m² | - |
| 1777462787 | 20° C | 99% | 1010.7 hPa | - | - | 0 W/m² | - |
| 1777462487 | 20.56° C | 99% | 1010.7 hPa | - | - | 0 W/m² | - |
| 1777462171 | 20.56° C | 99% | 1010.7 hPa | - | - | 0 W/m² | - |
* Rain since midnight (hover to see other rain measurements)
** Current wind speed in m/s (hover to see current wind gust speed)